This is the latest recevied weather packets stored in our database for station/object PA1CD-13. If no packets are shown the sender has not sent any weather packets the latest 10 day(s).
| Time | Temp. | Humidity | Pressure | Rain* | Wind** | Luminosity | Snow |
|---|---|---|---|---|---|---|---|
| 1778255371 | 18.89° C | 37% | 1016.5 hPa | 0 mm | - | 473 W/m² | - |
| 1778255251 | 18.89° C | 38% | 1016.5 hPa | 0 mm | - | 484 W/m² | - |
| 1778255132 | 18.89° C | 38% | 1016.5 hPa | 0 mm | - | 484 W/m² | - |
| 1778255011 | 18.89° C | 38% | 1016.6 hPa | 0 mm | - | 487 W/m² | - |
| 1778254892 | 18.89° C | 38% | 1016.6 hPa | 0 mm | - | 492 W/m² | - |
| 1778254772 | 18.89° C | 38% | 1016.6 hPa | 0 mm | - | 503 W/m² | - |
| 1778254650 | 18.89° C | 36% | 1016.6 hPa | 0 mm | - | 503 W/m² | - |
| 1778254531 | 18.89° C | 36% | 1016.6 hPa | 0 mm | - | 503 W/m² | - |
| 1778254412 | 18.89° C | 36% | 1016.6 hPa | 0 mm | - | 503 W/m² | - |
| 1778254292 | 18.89° C | 36% | 1016.7 hPa | 0 mm | - | 517 W/m² | - |
| 1778254170 | 18.89° C | 39% | 1016.7 hPa | 0 mm | - | 528 W/m² | - |
| 1778254047 | 18.89° C | 39% | 1016.7 hPa | 0 mm | - | 533 W/m² | - |
| 1778253906 | 18.89° C | 39% | 1016.7 hPa | 0 mm | - | 542 W/m² | - |
| 1778253784 | 18.89° C | 38% | 1016.7 hPa | 0 mm | - | 542 W/m² | - |
| 1778253664 | 18.89° C | 38% | 1016.7 hPa | 0 mm | - | 431 W/m² | - |
| 1778253544 | 18.89° C | 38% | 1016.7 hPa | 0 mm | - | 375 W/m² | - |
| 1778253424 | 19.44° C | 38% | 1016.7 hPa | 0 mm | - | 302 W/m² | - |
| 1778253306 | 19.44° C | 38% | 1016.8 hPa | 0 mm | - | 302 W/m² | - |
| 1778253184 | 19.44° C | 38% | 1016.7 hPa | 0 mm | - | 132 W/m² | - |
| 1778253065 | 18.89° C | 38% | 1016.8 hPa | 0 mm | - | 589 W/m² | - |
| 1778252944 | 18.89° C | 35% | 1016.7 hPa | 0 mm | - | 582 W/m² | - |
| 1778252825 | 19.44° C | 37% | 1016.7 hPa | 0 mm | - | 589 W/m² | - |
| 1778252707 | 19.44° C | 37% | 1016.9 hPa | 0 mm | - | 607 W/m² | - |
| 1778252584 | 19.44° C | 37% | 1016.8 hPa | 0 mm | - | 607 W/m² | - |
| 1778252464 | 19.44° C | 35% | 1016.9 hPa | 0 mm | - | 369 W/m² | - |
* Rain latest hour (hover to see other rain measurements)
** Current wind speed in m/s (hover to see current wind gust speed)